User: anonymous   Login
Location: Hancock Field Station
(44.9202°N, 120.4259°W)
Time: 10:27:03
(UTC-07:00)
Language:

Cosmos 1707 - Orbit

View from above orbital plane
View from above orbital plane
View from above satellite
View from above satellite

Ground track
Ground track

The orbit data is extracted from the following two-line orbital elements,

1 16326U 85113A   16121.46461639  .00001160  00000-0  64781-4 0  9994
2 16326  82.5115 253.5422 0009394 289.3848  70.6367 15.12549579654947
Epoch (UTC): 30 April 2016 11:09:02
Eccentricity: 0.0009394
inclination: 82.5115°
perigee height: 522 km
apogee height: 535 km
right ascension of ascending node: 253.5422°
argument of perigee: 289.3848°
revolutions per day: 15.12549579
mean anomaly at epoch: 70.6367°
orbit number at epoch: 65494

The dashed part of the orbit path shows where the satellite is in the earth's shadow,  

DLR